Flag for U.S.A. Weather past 2 weeks in Beaumont, Texas, U.S.A.

Now
81 °F

Passing clouds.


Feels Like: 88 °F
Forecast: 76 / 93 °F
Wind: 6 mph from Northwest

Location: Jefferson County Airport

Current Time: Jul 29, 2014 at 2:46:05 AM

Latest Report: Jul 29, 2014 at 1:53 AM


Visibility: 10 mi

Pressure: 30.03 "Hg

Humidity: 88%

Dew point: 77 °F

Location of BeaumontLocation

Historic Weather in Beaumont — Graph

°F

Beaumont temperature yesterday

Maximum temperature yesterday: 94 °F (at 3:53 PM)
Minimum temperature yesterday: 77 °F (at 6:53 AM)
Average temperature yesterday: 85 °F

Past Weeks' High & Low Weather Summary

 TemperatureHumidityPressure
High94 °F (Jul 21, 2:53 PM)97% (Jul 14, 4:53 AM)30.12 "Hg (Jul 14, 4:53 AM)
Low71 °F (Jul 14, 12:53 AM)46% (Jul 23, 3:53 PM)29.82 "Hg (Jul 18, 5:53 AM)
Average81 °F80%29.98 "Hg
* Reported Jul 14 12:53 AM — Jul 29 12:53 AM, Beaumont, Weather by CustomWeather, © 2014

Note: Actual official high and low records may vary slightly from our data, if they occured in-between our weather recording intervals... More about our weather records

Advertising

Beaumont weather history for previous 24 hours

 ConditionsComfort  
Time TempWeatherWind HumidityBarometerVisibility
12:53 AM
Jul 29
82 °FMostly cloudy.6 mph85%30.04 "Hg10 mi
11:53 PM
Jul 28
81 °FClear.5 mph88%30.02 "Hg10 mi
10:53 PM82 °FClear.6 mph85%30.01 "Hg10 mi
9:53 PM82 °FClear.6 mph88%30.03 "Hg10 mi
8:53 PM84 °FSunny.6 mph83%30.03 "Hg10 mi
7:53 PM88 °FSunny.5 mph59%30.01 "Hg10 mi
6:53 PM92 °FSunny.5 mph54%29.99 "Hg10 mi
5:53 PM93 °FSunny.3 mph52%29.99 "Hg10 mi
4:53 PM94 °FSunny.6 mph52%30.01 "Hg10 mi
3:53 PM94 °FPassing clouds.6 mph51%30.04 "Hg10 mi
2:53 PM93 °FPassing clouds.7 mph54%30.06 "Hg10 mi
1:53 PM93 °FSunny.9 mph56%30.07 "Hg10 mi
12:53 PM92 °FSunny.9 mph54%30.09 "Hg10 mi
11:53 AM90 °FScattered clouds.9 mph61%30.11 "Hg10 mi
10:53 AM88 °FScattered clouds.9 mph65%30.11 "Hg10 mi
9:53 AM86 °FPassing clouds.8 mph75%30.12 "Hg10 mi
8:53 AM83 °FSunny.7 mph85%30.11 "Hg9 mi
7:53 AM80 °FFog.5 mph94%30.09 "Hg6 mi
6:53 AM77 °FFog.5 mph96%30.07 "Hg4 mi
5:53 AM78 °FClear.3 mph93%30.06 "Hg7 mi
5:00 AM78 °FPassing clouds.No wind93%30.05 "Hg8 mi
3:53 AM78 °FClear.3 mph93%30.04 "Hg7 mi
2:53 AM79 °FClear.No wind90%30.03 "Hg9 mi
Weather by CustomWeather, © 2014

See weather overviewHow to use our weather pages